x

Isle Of Shoals, Nh (iosn3) Weather Station

1:00am - Wed 24th May 2017 All times are EDT. -4 hours from GMT.

  • Wind
    8mph, 8mph gusts
  • Air Temp 56°f
  • Sea Pressure 1009mb
  • Isle Of Shoals, Nh
  • Isle Of Shoals, Nh

More Historic Weather Station data

Upgrade to MSW Pro to gain access to the past 30 days of data for over 8000 Wavebouys and Weather Stations around the globe.

Join Pro

Comparision Forecast

View Surf forecast
   
Wed 05/24 1:00am 8 8 mph 1009mb 56f
12:00am 10 10 mph 1009.3mb 55f
Tue 05/23 11:00pm 15 15 mph 1009.4mb 55f
10:00pm 15 15 mph 1009.5mb 54f
9:00pm 18 18 mph 1009.3mb 56f
8:00pm 17 18 mph 1009.1mb 57f
7:00pm 17 17 mph 1009.3mb 58f
6:00pm 14 16 mph 1009.2mb 55f
5:00pm 16 16 mph 1009.2mb 56f
4:00pm 15 15 mph 1009.8mb 56f
3:00pm 11 11 mph 1010.2mb 56f
2:00pm 7 7 mph 1010.7mb 57f
1:00pm 8 8 mph 1011.7mb 56f
12:00pm  -  1 mph 1012.6mb 58f
11:00am 5 5 mph 1012.7mb 54f
10:00am 10 10 mph 1013.1mb 52f
9:00am 8 9 mph 1013.5mb 50f
8:00am 10 11 mph 1013.5mb 50f
7:00am 9 10 mph 1013.3mb 49f
6:00am 7 8 mph 1013mb 50f
5:00am 5 5 mph 1013mb 49f
4:00am 6 7 mph 1013mb 49f
3:00am 3 5 mph 1013.3mb 50f
2:00am 5 6 mph 1013.7mb 50f
1:00am 8 8 mph 1014.3mb 50f
12:00am 6 7 mph 1015.2mb 50f
Mon 05/22 11:00pm 3 3 mph 1015.8mb 50f
10:00pm 9 10 mph 1016.3mb 50f
9:00pm 13 14 mph 1017mb 50f
8:00pm 18 20 mph 1016.8mb 50f
7:00pm 21 23 mph 1017.3mb 50f
6:00pm 17 17 mph 1017.9mb 48f
5:00pm 20 21 mph 1018.6mb 48f
4:00pm 22 24 mph 1019.3mb 49f
3:00pm 18 20 mph 1020mb 48f
2:00pm 23 24 mph 1020.7mb 51f
1:00pm 24 25 mph 1020.8mb 51f
12:00pm 16 17 mph 1021.8mb 52f
11:00am 11 13 mph 1022.2mb 53f
10:00am 7 8 mph 1022.7mb 52f
9:00am 3 3 mph 1022.8mb 51f
8:00am  -  1 mph 1023.3mb 51f
7:00am 6 6 mph 1023.4mb 52f
6:00am 8 8 mph 1022.8mb 53f
5:00am 7 8 mph 1022.8mb 52f
4:00am 11 13 mph 1022.8mb 55f
3:00am 14 15 mph 1022.4mb 55f
2:00am 15 15 mph 1023mb 56f
1:00am 13 13 mph 1023.6mb 56f
12:00am 15 15 mph 1023.7mb 56f
Sun 05/21 11:00pm 20 21 mph 1023.8mb 56f
10:00pm 16 16 mph 1024.7mb 55f
9:00pm 7 7 mph 1025.3mb 55f
8:00pm 10 11 mph 1025mb 55f
7:00pm 15 16 mph 1025.2mb 54f
6:00pm 16 17 mph 1025.3mb 54f
5:00pm 16 17 mph 1025.5mb 54f
4:00pm 14 15 mph 1026mb 54f
3:00pm 15 16 mph 1026.7mb 54f
2:00pm 11 13 mph 1027.7mb 54f
1:00pm 7 8 mph 1028.5mb 54f
12:00pm 5 6 mph 1028.8mb 53f
11:00am 5 6 mph 1029.8mb 52f
10:00am 7 8 mph 1029.7mb 52f
9:00am 9 10 mph 1029.6mb 52f
8:00am 11 13 mph 1029.5mb 52f
7:00am 16 17 mph 1029mb 52f
6:00am 14 16 mph 1028.6mb 51f
5:00am 15 17 mph 1028.1mb 52f
4:00am 14 15 mph 1027.7mb 51f
3:00am 14 15 mph 1027mb 51f
2:00am 16 18 mph 1026.8mb 52f
1:00am 5 6 mph 1027mb 53f
12:00am 5 5 mph 1027mb 53f
Sat 05/20 11:00pm 11 11 mph 1026.6mb 54f
10:00pm 15 15 mph 1026.1mb 54f
9:00pm 15 15 mph 1025.6mb 55f
8:00pm 13 13 mph 1024.9mb 54f
7:00pm 15 16 mph 1024.9mb 53f
6:00pm 16 17 mph 1024.7mb 52f
5:00pm 13 14 mph 1024.9mb 52f
4:00pm 11 11 mph 1024.9mb 52f
3:00pm 10 10 mph 1025.2mb 51f
2:00pm 11 11 mph 1025.4mb 51f
1:00pm 13 14 mph 1025.2mb 51f
12:00pm 13 14 mph 1025.3mb 51f
11:00am 16 16 mph 1025.3mb 51f
10:00am 15 17 mph 1025.3mb 52f
9:00am 13 14 mph 1025.6mb 52f
8:00am 20 22 mph 1024.6mb 52f
7:00am 14 15 mph 1024mb 51f